User: anonymous   Login
Location: Demmingen
(48.6757°N, 10.4375°E)
Time: 16:29:41
(UTC+00:00)
Language:

COSMOS 2406 - Orbit

View from above orbital plane
View from above orbital plane
View from above satellite
View from above satellite

Ground track
Ground track

The orbit data is extracted from the following two-line orbital elements,

1 28352U 04021A   24195.90663906  .00000149  00000-0  10709-3 0  9991
2 28352  70.9996 129.0262 0010473 149.4939 210.6793 14.11921449 35482
Epoch (UTC): 13 July 2024 21:45:33
Eccentricity: 0.0010473
inclination: 70.9996°
perigee height: 845 km
apogee height: 860 km
right ascension of ascending node: 129.0262°
argument of perigee: 149.4939°
revolutions per day: 14.11921449
mean anomaly at epoch: 210.6793°
orbit number at epoch: 3548

The dashed part of the orbit path shows where the satellite is in the earth's shadow,  

DLR